sat.trackr.live / text

‹ back to catalog

STARLINK-11666 [DTC]

NORAD 63667 · 2025-085D

PAYLOAD ACTIVE UNKNOWN

§ Identity

Operator
Country
US
Launch date
2025-04-28
Launch site
AFETR
Launch vehicle
Mass (kg)
RCS (m²)

Purposes: comms

External: N2YO · Heavens-Above · Gunter

§ Orbital elements

Epoch: 2026-05-24T12:29:10.000896Z

Period
91.67 min
Inclination
43.0012°
Eccentricity
0.0001217
Mean motion
15.70841797 rev/d
Perigee alt
355.7 km
Apogee alt
357.3 km
Semi-major
6,734.6 km
B*
9.4677e-4
RAAN
181.7278°
Arg perigee
251.3159°
Mean anomaly
108.7576°
Rev number
6,207

§ Raw data

STARLINK-11666 [DTC]1 63667U 25085D   26144.52025464  .00122853  00000+0  94677-3 0  99992 63667  43.0012 181.7278 0001217 251.3159 108.7576 15.70841797 62079

JSON: /api/v1/satellites/63667 · /tle

For live sub-satellite position, see the globe view (requires WebGL).

§ Visibility from observer

Set your observer location to see the next 7 days of passes ≥ 10°. The values pass through the URL so the page stays shareable.

No JS? Fill the form by hand. The geolocation button needs JavaScript.